STOCKHOLM / BROMMA current weather conditions

sailwx.info

Wind from 230 at 11 knots

Air temperature 5.0° C
Visibility: greater than 5.4 NM
Dewpoint 2.0° C

Last reported at 2014-Dec-19 12:20 UTC.
Time now 2014-Dec-19 13:39 UTC

Location: N 59°21' E 017°57'.
View on Google Maps.

See reports from other nearby stations

  
Tides and Currents Weather Stations Pressure Air Temp Water Temp Dewpoint Dewpoint Depression Visibility Wind Speed Wind Dir Waves Ship Positions
date/time (UTC)wind fromknots sea level pressurealtimeterstation pressurevisibilityair tempwater tempwave heightnotes
2014-Dec-19 12:20 230 11 5.4 5.0
2014-Dec-19 11:50 240 11 5.4 5.0
2014-Dec-19 11:20 230 12 5.4 5.0
2014-Dec-19 10:50 230 10 5.4 5.0
2014-Dec-19 10:20 230 12 5.4 5.0
2014-Dec-19 09:50 240 13 5.4 5.0
2014-Dec-19 09:20 240 13 5.4 5.0
2014-Dec-19 08:50 250 12 5.4 5.0
2014-Dec-19 08:20 240 13 5.4 5.0
2014-Dec-19 07:50 230 8 5.4 5.0
2014-Dec-19 07:20 230 6 5.4 5.0
2014-Dec-19 06:50 260 5 5.4 5.0
2014-Dec-19 06:20 230 5 1.4 4.0 Heavy drizzle.
2014-Dec-19 05:50 210 5 2.7 4.0 Mist.
2014-Dec-19 05:20 190 3 5.4 4.0
2014-Dec-19 04:50 200 3 4.9 4.0 Light drizzle.
2014-Dec-19 04:20 190 3 5.4 4.0 Drizzle.
2014-Dec-19 03:50 180 2 0.8 4.0 Rain.
2014-Dec-19 03:20 0.5 4.0 Light rain.
2014-Dec-19 02:50 0.9 4.0 Light rain.
2014-Dec-19 02:20 150 2 3.8 4.0 Light rain.
2014-Dec-19 01:50 190 4 3.8 4.0 Light rain.
2014-Dec-19 01:20 190 4 4.9 4.0
2014-Dec-19 00:50 190 3 5.4 4.0
2014-Dec-19 00:20 190 4 5.4 4.0 Light rain.
2014-Dec-18 23:50 190 4 5.4 4.0
2014-Dec-18 23:20 5.4 4.0
2014-Dec-18 22:50 5.4 4.0
2014-Dec-18 22:20 170 3 5.4 4.0
2014-Dec-18 21:50 5.4 4.0
2014-Dec-18 21:20 170 4 5.4 4.0
2014-Dec-18 20:50 5.4 4.0
2014-Dec-18 20:20 180 3 5.4 4.0 Light drizzle.
2014-Dec-18 19:50 190 4 5.4 4.0
2014-Dec-18 19:20 180 4 5.4 4.0
2014-Dec-18 18:50 180 5 5.4 4.0
2014-Dec-18 18:20 180 6 5.4 4.0
2014-Dec-18 17:50 200 6 5.4 4.0
2014-Dec-18 17:20 210 7 5.4 4.0
2014-Dec-18 16:50 200 5 5.4 3.0
2014-Dec-18 16:20 200 5 5.4 3.0
2014-Dec-18 15:50 200 5 5.4 3.0
2014-Dec-18 15:20 200 6 5.4 3.0 Light rain.
2014-Dec-18 14:50 190 6 5.4 3.0
2014-Dec-18 14:20 200 4 5.4 3.0
2014-Dec-18 13:50 200 5 5.4 3.0
2014-Dec-18 13:20 5.4 3.0
2014-Dec-18 12:50 190 6 5.4 3.0
2014-Dec-18 12:20 200 8 5.4 3.0
2014-Dec-18 11:50 210 7 4.3 2.0 Mist.
2014-Dec-18 11:20 200 6 3.8 2.0 Light drizzle.
2014-Dec-18 10:50 200 7 5.4 2.0 Light drizzle.
2014-Dec-18 10:20 190 6 4.3 2.0 Light drizzle.
2014-Dec-18 09:50 190 6 5.4 2.0
2014-Dec-18 09:20 180 6 4.3 2.0 Light rain.
2014-Dec-18 08:50 170 6 4.3 1.0 Light drizzle.
2014-Dec-18 08:20 160 6 5.4 1.0
2014-Dec-18 07:50 170 5 5.4 1.0
2014-Dec-18 07:20 180 5 4.3 1.0 Light rain.
2014-Dec-18 06:50 170 4 4.9 1.0 Light rain.
2014-Dec-18 06:20 170 3 5.4-0.0
2014-Dec-18 05:50 170 4 5.4-0.0
2014-Dec-18 05:20 5.4-2.0
2014-Dec-18 04:50 150 3 5.4-2.0
2014-Dec-18 04:20 150 2 5.4-2.0
2014-Dec-18 03:50 5.4-3.0
2014-Dec-18 03:20 5.4-4.0
2014-Dec-18 02:50 4.9-5.0
2014-Dec-18 02:20 210 2 5.4-5.0
2014-Dec-18 01:50 200 2 5.4-4.0
2014-Dec-18 01:20 220 4 5.4-5.0
2014-Dec-18 00:50 210 2 5.4-5.0
2014-Dec-18 00:20 190 2 5.4-4.0
2014-Dec-17 23:50 210 3 5.4-4.0
2014-Dec-17 23:20 230 2 5.4-4.0
2014-Dec-17 22:50 220 3 5.4-4.0
2014-Dec-17 22:20 210 3 3.2-4.0 Mist.
2014-Dec-17 21:50 230 2 5.4-4.0
2014-Dec-17 21:20 240 3 5.4-4.0
2014-Dec-17 20:50 250 3 5.4-3.0
2014-Dec-17 20:20 240 4 5.4-3.0
2014-Dec-17 19:50 250 4 5.4-2.0
2014-Dec-17 19:20 260 4 5.4-2.0
2014-Dec-17 18:50 260 4 5.4-2.0
2014-Dec-17 18:20 5.4-2.0
2014-Dec-17 17:50 280 3 5.4-2.0
2014-Dec-17 17:20 290 5 5.4-1.0
2014-Dec-17 16:50 280 7 5.4-1.0
2014-Dec-17 16:20 280 6 5.4-1.0
2014-Dec-17 15:50 290 3 5.4-1.0
2014-Dec-17 15:20 300 4 5.4-0.0
2014-Dec-17 14:50 290 6 5.4-0.0
2014-Dec-17 14:20 280 4 1.6-0.0 Light snow.
2014-Dec-17 13:50 300 3 0.4-0.0 Light snow.
2014-Dec-17 13:20 320 3 0.3-0.0 Snow.